Lewisburg, WV

5:33 PM EDT on August 20, 2019 (GMT -0400)
Greenbrier Valley

Weather History for KLWB - July, 2019

Change the Weather History Date:

Monday, July 22, 2019

  Actual Average Record
Temperature  
Mean Temperature 70 °F -  
Max Temperature 75 °F 84 °F 95 °F (2011)
Min Temperature 65 °F 60 °F 50 °F (2007)
Cooling Degree Days 5    
Growing Degree Days 20 (Base 50)    
Moisture  
Dew Point 68 °F    
Average Humidity 95    
Maximum Humidity 100    
Minimum Humidity 82    
Precipitation  
Precipitation 0.41 in - - ()
Sea Level Pressure  
Sea Level Pressure 30.00 in    
Wind  
Wind Speed 3 mph (SW)    
Max Wind Speed 13 mph    
Max Gust Speed 16 mph    
Visibility 7 miles    
Events Fog , Rain , Thunderstorm    
Averages and records for this station are not official NWS values.
T = Trace of Precipitation, MM = Missing Value Source: NWS Daily Summary

Daily Weather History Graph

Daily Weather History Graph

Search for Another Location

Airport or City:

Astronomy

Jul. 22, 2019 Rise Set
Actual Time 6:16 AM EDT 8:39 PM EDT
Civil Twilight 5:46 AM EDT 9:09 PM EDT
Nautical Twilight 5:09 AM EDT 9:45 PM EDT
Astronomical Twilight 4:28 AM EDT 10:26 PM EDT
Moon No Moon Rise 11:27 AM EDT (7/22)
Length of Visible Light 15h 22m
Length of Day
14h 22m
Waning Gibbous, 72% of the Moon is Illuminated
Jul 22
Waning Gibbous
Jul 24
Last Quarter
Jul 31
New
Aug 7
First Quarter
Aug 15
Full

Hourly Weather History & Observations

Time (EDT) Temp. Dew Point Humidity Pressure Visibility Wind Dir Wind Speed Gust Speed Precip Events Conditions
12:10 AM 66.2 °F 65.7 °F 98% 30.07 in 10.0 mi Calm Calm - N/A   Scattered Clouds
12:30 AM 66.6 °F 66.2 °F 99% 30.06 in 10.0 mi Calm Calm - N/A   Scattered Clouds
12:50 AM 66.0 °F 65.3 °F 98% 30.06 in 10.0 mi Calm Calm - N/A   Clear
1:10 AM 66.4 °F 65.8 °F 98% 30.06 in - Calm Calm - N/A Thunderstorm Thunderstorm
1:30 AM 66.4 °F 65.8 °F 98% 30.06 in 10.0 mi Calm Calm - N/A   Scattered Clouds
1:50 AM 65.7 °F 65.3 °F 99% 30.06 in 7.0 mi Calm Calm - N/A   Mostly Cloudy
2:10 AM 65.5 °F 65.1 °F 99% 30.05 in 7.0 mi Calm Calm - N/A   Mostly Cloudy
2:30 AM 65.7 °F 65.3 °F 99% 30.05 in 10.0 mi Calm Calm - N/A   Scattered Clouds
2:50 AM 66.2 °F 65.7 °F 98% 30.04 in 10.0 mi Calm Calm - N/A   Mostly Cloudy
3:10 AM 65.8 °F 65.5 °F 99% 30.04 in 10.0 mi Calm Calm - N/A   Mostly Cloudy
3:30 AM 66.0 °F 65.3 °F 98% 30.04 in 7.0 mi Calm Calm - N/A   Overcast
3:50 AM 65.5 °F 65.3 °F 99% 30.03 in 0.8 mi Calm Calm - N/A   Overcast
4:10 AM 66.2 °F 65.8 °F 99% 30.03 in 1.8 mi Calm Calm - N/A   Overcast
4:30 AM 66.2 °F 66.0 °F 99% 30.03 in 0.5 mi Calm Calm - N/A Fog Fog
4:50 AM 66.4 °F 66.2 °F 99% 30.03 in 0.2 mi Calm Calm - N/A Fog Fog
5:10 AM 66.2 °F 66.2 °F 100% 30.02 in 0.2 mi Calm Calm - N/A Fog Fog
5:30 AM 66.2 °F 66.2 °F 100% 30.02 in 0.2 mi Calm Calm - N/A Fog Fog
5:50 AM 66.6 °F 66.4 °F 99% 30.03 in 0.2 mi West 3.5 mph - N/A Fog Fog
6:10 AM 66.6 °F 66.4 °F 99% 30.02 in 0.2 mi Calm Calm - N/A Fog Fog
6:30 AM 66.6 °F 66.6 °F 100% 30.01 in 0.2 mi Calm Calm - N/A Fog Fog
6:50 AM 67.1 °F 67.1 °F 100% 30.02 in 0.2 mi Calm Calm - N/A Fog Fog
7:10 AM 67.1 °F 67.1 °F 100% 30.03 in 0.2 mi Calm Calm - N/A Fog Fog
7:30 AM 67.5 °F 67.3 °F 99% 30.03 in 0.2 mi Calm Calm - N/A Fog Fog
7:50 AM 68.0 °F 68.0 °F 100% 30.02 in 0.8 mi Calm Calm - N/A   Overcast
8:10 AM 68.2 °F 68.0 °F 99% 30.01 in 2.0 mi Calm Calm - N/A Rain Light Rain
8:30 AM 68.9 °F 68.7 °F 99% 30.02 in 5.0 mi South 4.6 mph - N/A   Overcast
8:50 AM 69.4 °F 69.3 °F 99% 30.03 in 7.0 mi SSW 6.9 mph - N/A Rain Light Rain
9:10 AM 69.8 °F 69.4 °F 99% 30.03 in 10.0 mi SSW 5.8 mph - N/A   Light Drizzle
9:30 AM 70.3 °F 69.8 °F 98% 30.04 in 7.0 mi SW 6.9 mph - N/A Rain Light Rain
9:50 AM 70.7 °F 70.0 °F 98% 30.04 in 7.0 mi SW 4.6 mph - N/A   Light Drizzle
10:10 AM 71.2 °F 70.0 °F 96% 30.03 in 10.0 mi WSW 6.9 mph - N/A   Mostly Cloudy
10:30 AM 72.7 °F 70.5 °F 93% 30.03 in 10.0 mi WSW 6.9 mph - N/A   Mostly Cloudy
11:10 AM 73.4 °F 68.9 °F 86% 30.03 in - WSW 6.9 mph - N/A   Unknown
11:30 AM 74.1 °F 68.9 °F 84% 30.03 in 10.0 mi SW 8.1 mph - N/A   Scattered Clouds
11:50 AM 74.3 °F 68.5 °F 82% 30.03 in 10.0 mi West 8.1 mph - N/A   Mostly Cloudy
12:10 PM 75.0 °F 69.1 °F 82% 30.02 in 10.0 mi WSW 8.1 mph - N/A   Overcast
12:30 PM 74.3 °F 70.5 °F 88% 30.02 in 10.0 mi WSW 9.2 mph - N/A Rain Light Rain
12:50 PM 73.8 °F 68.9 °F 85% 30.02 in 10.0 mi West 6.9 mph - N/A Rain Light Rain
1:10 PM 73.9 °F 71.6 °F 92% 30.01 in 10.0 mi West 5.8 mph - N/A   Mostly Cloudy
1:30 PM 73.4 °F 70.7 °F 91% 30.01 in 7.0 mi West 5.8 mph - N/A Rain Rain
1:50 PM 73.6 °F 70.9 °F 91% 30.00 in 10.0 mi West 3.5 mph - N/A Rain , Thunderstorm Rain
2:10 PM 72.5 °F 70.5 °F 93% 29.99 in 5.0 mi Calm Calm - N/A Rain Rain
2:30 PM 72.3 °F 71.1 °F 96% 29.99 in 7.0 mi SSW 5.8 mph - N/A Rain Light Rain
2:50 PM 72.7 °F 69.4 °F 90% 29.99 in 10.0 mi SW 9.2 mph - N/A   Mostly Cloudy
3:10 PM 73.4 °F 69.3 °F 87% 29.99 in 10.0 mi SW 9.2 mph - N/A   Scattered Clouds
3:30 PM 73.0 °F 68.9 °F 87% 29.98 in 10.0 mi SW 10.4 mph 16.1 mph N/A   Scattered Clouds
3:50 PM 72.7 °F 68.7 °F 87% 29.96 in 10.0 mi SW 9.2 mph - N/A Thunderstorm Unknown
4:10 PM 73.6 °F 69.1 °F 86% 29.95 in 10.0 mi SSW 9.2 mph 16.1 mph N/A   Mostly Cloudy
4:30 PM 73.8 °F 68.5 °F 84% 29.95 in - SW 9.2 mph - N/A   Unknown
4:50 PM 73.4 °F 68.5 °F 85% 29.96 in 10.0 mi SW 10.4 mph - N/A   Mostly Cloudy
5:10 PM 73.0 °F 68.4 °F 85% 29.96 in 10.0 mi SW 8.1 mph - N/A   Scattered Clouds
5:30 PM 72.7 °F 68.9 °F 88% 29.96 in 10.0 mi South 9.2 mph - N/A   Mostly Cloudy
5:50 PM 72.5 °F 67.5 °F 84% 29.95 in 10.0 mi SW 12.7 mph - N/A   Overcast
6:10 PM 72.0 °F 68.0 °F 87% 29.95 in 10.0 mi SW 10.4 mph - N/A Rain Light Rain
6:30 PM 70.9 °F 68.5 °F 92% 29.94 in 7.0 mi SW 9.2 mph - N/A Rain Light Rain
6:50 PM 70.7 °F 68.7 °F 93% 29.94 in 10.0 mi SW 6.9 mph - N/A Rain Light Rain
7:10 PM 70.0 °F 68.4 °F 95% 29.93 in 10.0 mi SW 8.1 mph - N/A Rain Light Rain
7:30 PM 69.8 °F 68.2 °F 95% 29.95 in 7.0 mi SW 5.8 mph - N/A Rain Rain
7:50 PM 69.3 °F 68.4 °F 97% 29.95 in 3.0 mi SW 5.8 mph - 0.05 in Rain Heavy Rain
8:10 PM 68.9 °F 68.4 °F 98% 29.95 in 5.0 mi SW 4.6 mph - 0.01 in Rain Light Rain
8:30 PM 69.1 °F 68.4 °F 98% 29.96 in 5.0 mi SW 6.9 mph - 0.04 in Rain Heavy Rain
8:50 PM 68.9 °F 68.2 °F 98% 29.96 in 7.0 mi SW 5.8 mph - 0.12 in Rain Light Rain
9:10 PM 68.9 °F 68.4 °F 98% 29.96 in 4.0 mi WSW 5.8 mph - 0.04 in Rain Light Rain
9:30 PM 69.1 °F 68.4 °F 98% 29.96 in 7.0 mi Calm Calm - 0.04 in Rain Rain
9:50 PM 68.7 °F 68.2 °F 98% 29.95 in 5.0 mi South 4.6 mph - 0.06 in Rain Rain
10:10 PM 68.4 °F 68.0 °F 99% 29.96 in 2.5 mi North 6.9 mph - 0.16 in Rain Heavy Rain
10:30 PM 68.4 °F 67.5 °F 97% 29.96 in 10.0 mi WSW 4.6 mph - 0.18 in Rain Rain
10:50 PM 68.0 °F 67.5 °F 98% 29.96 in 10.0 mi Calm Calm - 0.18 in Rain Light Rain
11:10 PM 67.6 °F 67.1 °F 98% 29.97 in 7.0 mi WSW 5.8 mph - N/A Rain Rain
11:30 PM 68.0 °F 67.3 °F 98% 29.97 in 10.0 mi Calm Calm - N/A   Overcast
11:50 PM 68.0 °F 67.5 °F 98% 29.97 in 10.0 mi Calm Calm - N/A Rain Rain